Change the Weather History Date:

Friday, October 26, 2012

  Actual Average (KAKO) Record (KAKO)
Temperature  
Mean Temperature 28 °F 47 °F  
Max Temperature 34 °F 60 °F 85 °F (1940)
Min Temperature 23 °F 34 °F 20 °F (1957)
Degree Days  
Heating Degree Days 36    
Month to date heating degree days  
Cooling Degree Days 0    
Month to date cooling degree days  
Moisture  
Dew Point 26 °F    
Average Humidity 88    
Maximum Humidity 96    
Minimum Humidity 72    
Precipitation  
Precipitation 0.00 in 0.03 in 0.17 in (1941)
Month to date precipitation 0.99  
Year to date precipitation 15.64  
Sea Level Pressure  
Sea Level Pressure 30.35 in    
Wind  
Wind Speed 6 mph ()    
Max Wind Speed 12 mph    
Max Gust Speed -    
Visibility 7.3 miles    
Events      
T = Trace of Precipitation, MM = Missing Value Source: Averaged Metar Reports

Daily Weather History Graph

Daily Weather History Graph

Search for Another Location

Airport or City:

Trip Planner

Search our weather history database for the weather conditions in past years. The results will help you decide how hot, cold, wet, or windy it might be!

Date:

Astronomy

Oct. 26, 2012 Rise Set
Actual Time 7:18 AM MDT 5:58 PM MDT
Civil Twilight 6:50 AM MDT 6:26 PM MDT
Nautical Twilight 6:18 AM MDT 6:58 PM MDT
Astronomical Twilight 5:47 AM MDT 7:30 PM MDT
Moon 4:16 PM MDT (10/26) 4:16 AM MDT (10/26)
Length of Visible Light 11h 36m
Length of Day
10h 40m
Waxing Gibbous, 91% of the Moon is Illuminated
Oct 26
Waxing Gibbous
Oct 29
Full
Nov 6
Last Quarter
Nov 13
New
Nov 20
First Quarter

Hourly Weather History & Observations

Time (MDT) Temp. Windchill Dew Point Humidity Pressure Visibility Wind Dir Wind Speed Gust Speed Precip Events Conditions
12:35 AM 28.4 °F 20.4 °F 26.2 °F 92% 30.30 in 10.0 mi East 8.1 mph - N/A   Overcast
12:55 AM 28.4 °F 20.4 °F 26.4 °F 92% 30.31 in 10.0 mi East 8.1 mph - N/A   Overcast
1:15 AM 28.0 °F 18.6 °F 26.1 °F 92% 30.31 in 10.0 mi NE 10.4 mph - N/A   Overcast
1:35 AM 27.9 °F 19.1 °F 26.2 °F 94% 30.31 in 10.0 mi NE 9.2 mph - N/A   Overcast
1:55 AM 28.2 °F 18.9 °F 26.6 °F 94% 30.32 in 10.0 mi ENE 10.4 mph - N/A   Overcast
2:15 AM 28.4 °F 18.5 °F 26.6 °F 93% 30.32 in 10.0 mi ENE 11.5 mph - N/A   Overcast
2:35 AM 28.4 °F 19.1 °F 26.8 °F 94% 30.33 in 7.0 mi ENE 10.4 mph - N/A   Overcast
2:55 AM 28.4 °F 19.1 °F 27.0 °F 94% 30.33 in 2.0 mi ENE 10.4 mph - N/A   Overcast
3:15 AM 28.2 °F 18.9 °F 27.0 °F 95% 30.33 in 2.0 mi ENE 10.4 mph - N/A   Overcast
3:35 AM 28.0 °F 18.6 °F 27.0 °F 96% 30.33 in 1.0 mi ENE 10.4 mph - N/A   Overcast
3:55 AM 27.9 °F 18.4 °F 26.8 °F 96% 30.34 in 1.0 mi ENE 10.4 mph - N/A   Overcast
4:15 AM 27.5 °F 18.6 °F 26.6 °F 96% 30.34 in 1.5 mi ENE 9.2 mph - N/A   Overcast
4:35 AM 27.5 °F 19.3 °F 26.6 °F 96% 30.35 in 1.0 mi ENE 8.1 mph - N/A   Overcast
4:55 AM 27.5 °F 20.2 °F 26.6 °F 96% 30.36 in 1.0 mi ENE 6.9 mph - N/A   Overcast
5:15 AM 27.5 °F 21.1 °F 26.6 °F 96% 30.37 in 1.8 mi NE 5.8 mph - N/A   Overcast
5:35 AM 27.5 °F 19.3 °F 26.6 °F 96% 30.39 in 1.0 mi NNE 8.1 mph - N/A   Overcast
6:15 AM 26.6 °F 20.0 °F 25.7 °F 96% 30.39 in 3.0 mi NNE 5.8 mph - N/A   Overcast
6:35 AM 26.6 °F 21.2 °F 25.7 °F 96% 30.40 in 4.0 mi NNE 4.6 mph - N/A   Overcast
6:55 AM 26.6 °F 22.6 °F 25.7 °F 96% 30.41 in 1.8 mi NNE 3.5 mph - N/A   Overcast
7:15 AM 26.6 °F 22.6 °F 25.7 °F 96% 30.41 in 3.0 mi NE 3.5 mph - N/A   Overcast
7:35 AM 26.6 °F - 25.7 °F 96% 30.41 in 2.5 mi Calm Calm - N/A   Overcast
7:55 AM 26.6 °F 22.6 °F 25.7 °F 96% 30.42 in 1.8 mi NNE 3.5 mph - N/A   Overcast
8:15 AM 27.1 °F 23.2 °F 26.1 °F 96% 30.43 in 2.5 mi NNE 3.5 mph - N/A   Overcast
8:55 AM 28.6 °F 24.8 °F 26.6 °F 92% 30.45 in 2.0 mi East 3.5 mph - N/A   Overcast
9:15 AM 27.9 °F 24.0 °F 25.3 °F 90% 30.45 in 2.0 mi East 3.5 mph - N/A   Overcast
9:35 AM 30.2 °F 26.7 °F 25.7 °F 83% 30.45 in 3.0 mi East 3.5 mph - N/A   Mostly Cloudy
10:15 AM 29.1 °F 24.1 °F 26.1 °F 88% 30.46 in 5.0 mi South 4.6 mph - N/A   Overcast
10:35 AM 30.2 °F 26.7 °F 26.6 °F 86% 30.47 in 5.0 mi SW 3.5 mph - N/A   Overcast
10:55 AM 30.2 °F 23.4 °F 26.4 °F 86% 30.47 in 7.0 mi SW 6.9 mph - N/A   Overcast
11:15 AM 31.3 °F 25.6 °F 26.1 °F 81% 30.46 in 7.0 mi SW 5.8 mph - N/A   Overcast
11:35 AM 30.2 °F 23.4 °F 25.7 °F 83% 30.46 in 7.0 mi SW 6.9 mph - N/A   Overcast
11:55 AM 30.0 °F 24.1 °F 25.9 °F 85% 30.46 in 7.0 mi WSW 5.8 mph - N/A   Overcast
12:15 PM 30.6 °F 23.8 °F 26.2 °F 84% 30.45 in 7.0 mi WSW 6.9 mph - N/A   Overcast
12:35 PM 31.3 °F 25.6 °F 25.7 °F 80% 30.44 in 10.0 mi SSW 5.8 mph - N/A   Overcast
12:55 PM 31.6 °F 26.0 °F 25.7 °F 79% 30.43 in 10.0 mi SSW 5.8 mph - N/A   Overcast
1:15 PM 31.6 °F 27.0 °F 26.2 °F 80% 30.41 in 10.0 mi SW 4.6 mph - N/A   Overcast
1:55 PM 32.4 °F - 26.1 °F 78% 30.39 in 10.0 mi Calm Calm - N/A   Overcast
2:15 PM 32.9 °F 29.8 °F 25.5 °F 74% 30.38 in 10.0 mi SSW 3.5 mph - N/A   Mostly Cloudy
2:35 PM 32.7 °F - 25.5 °F 75% 30.37 in 10.0 mi Calm Calm - N/A   Scattered Clouds
2:55 PM 33.6 °F 28.4 °F 25.5 °F 72% 30.36 in 10.0 mi South 5.8 mph - N/A   Mostly Cloudy
3:15 PM 33.8 °F 29.6 °F 26.1 °F 73% 30.36 in 10.0 mi SW 4.6 mph - N/A   Overcast
3:35 PM 32.9 °F 26.7 °F 25.9 °F 75% 30.35 in 10.0 mi South 6.9 mph - N/A   Mostly Cloudy
3:55 PM 33.8 °F 30.8 °F 26.8 °F 75% 30.34 in 10.0 mi South 3.5 mph - N/A   Overcast
4:15 PM 33.1 °F 28.7 °F 25.7 °F 74% 30.33 in 10.0 mi South 4.6 mph - N/A   Overcast
4:35 PM 34.2 °F 29.0 °F 26.2 °F 73% 30.32 in 10.0 mi SE 5.8 mph - N/A   Mostly Cloudy
4:55 PM 32.5 °F 27.1 °F 25.7 °F 76% 30.32 in 10.0 mi SE 5.8 mph - N/A   Scattered Clouds
5:15 PM 32.2 °F 27.7 °F 25.7 °F 77% 30.32 in 10.0 mi SSE 4.6 mph - N/A   Clear
5:35 PM 31.8 °F 28.5 °F 25.7 °F 78% 30.31 in 10.0 mi SE 3.5 mph - N/A   Clear
5:55 PM 30.7 °F 24.9 °F 25.7 °F 82% 30.30 in 10.0 mi SE 5.8 mph - N/A   Clear
6:15 PM 29.7 °F 26.1 °F 25.7 °F 85% 30.30 in 10.0 mi SSE 3.5 mph - N/A   Clear
6:35 PM 28.9 °F - 26.1 °F 89% 30.30 in 10.0 mi Calm Calm - N/A   Clear
6:55 PM 28.8 °F 25.0 °F 26.1 °F 90% 30.30 in 10.0 mi SSE 3.5 mph - N/A   Clear
7:15 PM 28.6 °F 24.8 °F 25.9 °F 90% 30.29 in 10.0 mi SSE 3.5 mph - N/A   Clear
7:35 PM 28.2 °F - 25.5 °F 90% 30.29 in 10.0 mi Calm Calm - N/A   Clear
7:55 PM 28.0 °F 24.2 °F 25.3 °F 90% 30.29 in 10.0 mi SSE 3.5 mph - N/A   Clear
8:15 PM 26.1 °F 20.5 °F 23.5 °F 90% 30.28 in 10.0 mi ESE 4.6 mph - N/A   Clear
8:35 PM 27.3 °F 22.0 °F 24.6 °F 90% 30.27 in 10.0 mi ESE 4.6 mph - N/A   Clear
8:55 PM 26.1 °F 18.4 °F 23.5 °F 90% 30.26 in 10.0 mi ESE 6.9 mph - N/A   Clear
9:15 PM 24.8 °F 19.1 °F 23.0 °F 93% 30.25 in 10.0 mi ESE 4.6 mph - N/A   Clear
9:35 PM 24.6 °F - 23.0 °F 94% 30.25 in 10.0 mi Calm Calm - N/A   Clear
9:55 PM 23.9 °F - 22.5 °F 94% 30.24 in 10.0 mi Calm Calm - N/A   Clear
10:15 PM 23.2 °F - 21.9 °F 95% 30.24 in 10.0 mi Calm Calm - N/A   Clear
10:35 PM 23.9 °F - 23.0 °F 96% 30.23 in 10.0 mi Calm Calm - N/A   Clear
10:55 PM 24.3 °F 19.9 °F 23.0 °F 95% 30.22 in 10.0 mi ENE 3.5 mph - N/A   Clear
11:15 PM 24.8 °F 20.5 °F 23.5 °F 95% 30.21 in 10.0 mi SE 3.5 mph - N/A   Clear
11:35 PM 26.8 °F - 24.8 °F 92% 30.21 in 10.0 mi Calm Calm - N/A   Clear
11:55 PM 25.7 °F 21.5 °F 23.9 °F 93% 30.20 in 10.0 mi East 3.5 mph - N/A   Clear